Temperature
21 21 21 21 18 16 18 19 19 19 19 19 19 19 18 18 18 18 18 18 18 18 18 18 18 18 18 18 17 18 18 18 18 18 18 18 18 18 18 18 18 18 18 18 18 18 18 18 18
21 21 21 20 17 17 18 19 19 19 19 19 19 19 18 17 18 18 18 18 18 18 18 18 18 18 18 17 17 17 18 17 17 18 18 18 18 18 18 18 18 18 18 18 18 18 18 18 18
21 21 21 16 17 17 19 20 19 19 20 19 19 18 18 18 18 18 18 18 18 18 18 18 17 17 17 17 17 17 17 17 17 17 17 17 17 17 17 18 18 18 17 17 17 18 17 17 17
21 21 20 17 19 19 19 19 19 19 20 19 19 18 18 18 18 18 18 18 18 18 18 17 17 17 17 17 17 17 17 17 17 17 17 17 17 17 17 17 17 17 17 17 17 17 17 17 17
21 21 17 17 19 19 19 19 20 19 19 19 19 18 18 18 18 18 18 18 18 18 18 17 17 17 17 17 17 17 17 17 17 17 17 17 17 17 17 17 17 17 17 17 17 17 17 17 17
21 18 17 17 19 19 19 20 20 19 19 19 19 18 18 18 18 18 18 18 18 18 17 17 17 17 17 17 17 17 17 17 17 17 17 17 17 17 17 17 17 17 17 17 17 17 17 17 17
20 16 17 18 18 19 20 20 20 19 19 19 19 17 18 18 18 18 18 18 18 17 17 17 17 17 17 17 17 17 17 17 17 17 17 17 17 17 17 17 17 17 17 16 16 16 16 16 16
21 17 18 18 19 19 20 20 20 20 19 19 19 18 18 18 18 18 18 18 17 17 17 17 17 17 17 17 17 17 17 17 17 17 17 17 17 17 17 16 16 16 16 16 16 16 16 16 16
21 17 18 19 19 20 20 20 20 20 20 19 19 19 19 18 18 18 18 18 18 17 17 17 17 17 17 17 17 17 17 17 17 17 17 17 17 16 16 16 16 16 16 16 16 16 16 16 16
20 17 19 19 19 19 20 20 20 20 19 19 19 19 19 18 18 18 18 18 18 18 17 17 17 17 17 17 17 17 17 17 17 17 17 17 16 16 16 16 16 16 16 16 16 16 16 16 16
20 19 20 20 20 21 20 20 20 20 19 19 20 20 19 19 18 18 18 18 18 18 18 17 17 17 17 17 17 17 17 17 17 17 17 16 16 16 16 16 16 16 16 16 16 16 16 16 16
20 20 20 21 21 21 20 20 20 20 20 21 21 20 20 19 19 18 18 18 18 18 18 17 17 17 17 17 17 17 17 17 17 17 16 16 16 16 16 16 16 16 16 16 16 16 15 15 15
20 20 21 21 21 21 21 20 20 20 21 21 20 20 20 19 19 19 19 18 18 18 18 18 17 17 17 17 17 17 17 17 17 16 16 16 16 16 16 16 16 16 16 16 16 16 15 15 15
20 20 20 21 21 21 20 20 20 20 21 21 20 20 20 19 19 19 19 18 18 18 18 18 18 17 17 17 17 17 17 17 17 16 16 16 16 16 16 16 16 16 15 15 15 15 15 15 15
20 20 20 20 20 20 20 19 19 20 20 20 20 20 19 19 19 19 19 19 19 18 18 18 18 18 17 17 17 17 17 17 17 17 16 16 16 16 16 16 16 15 15 15 15 15 15 15 15
20 19 19 19 20 20 20 18 19 20 19 19 19 19 19 19 19 19 19 19 19 18 18 18 18 18 17 17 17 17 17 17 17 17 16 16 16 16 16 16 16 15 15 15 15 15 15 15 15
18 18 18 19 19 19 19 18 18 19 18 18 18 19 19 19 19 19 19 19 19 19 18 18 18 18 18 17 17 17 17 17 17 16 16 16 16 16 16 16 15 15 15 15 15 15 15 15 14
18 18 18 18 19 18 18 17 17 18 18 17 17 18 18 18 19 19 19 19 19 18 18 18 18 18 17 17 17 17 17 17 17 16 16 16 16 16 16 15 15 15 15 15 15 15 15 14 14
18 18 18 18 19 18 17 17 17 17 17 16 17 17 18 18 19 19 18 18 18 18 18 18 18 18 18 17 17 17 17 17 17 16 16 16 16 16 16 15 15 15 15 15 15 15 14 14 14
18 18 18 18 18 18 17 17 17 16 16 16 16 17 18 18 18 18 18 18 18 18 18 18 18 18 18 17 17 17 17 17 17 16 16 16 16 16 15 15 15 15 15 15 15 14 14 14 14
18 18 18 18 18 18 17 16 16 16 16 16 16 17 17 17 18 18 18 18 18 18 18 18 18 18 17 17 17 17 17 17 16 16 16 16 16 16 16 15 15 15 15 15 14 14 14 14 14
18 18 18 18 17 16 17 16 16 16 15 15 16 16 16 17 18 18 18 18 18 18 18 18 18 18 17 17 17 17 17 17 16 16 16 16 16 16 15 15 15 15 15 15 14 14 14 14 14
18 18 18 18 17 16 16 15 15 15 15 15 15 16 16 17 17 18 18 18 18 18 18 17 17 17 17 17 17 17 17 16 16 16 16 16 15 15 15 15 15 15 15 15 14 14 14 14 14
18 17 16 15 15 15 15 15 15 14 15 15 15 16 16 17 17 17 17 17 18 17 17 17 17 17 17 17 17 17 16 16 16 16 15 15 15 15 15 15 15 14 14 14 14 14 14 14 14
17 16 15 16 14 14 15 15 14 15 15 15 15 16 16 16 17 17 17 17 17 17 17 17 17 16 16 16 16 16 16 16 16 16 15 15 15 15 15 14 14 14 14 14 14 14 14 13 13
16 16 15 15 15 14 14 14 15 15 15 16 16 16 16 16 16 16 16 16 16 17 17 17 16 16 16 16 16 16 16 16 15 15 15 15 15 15 15 14 14 14 14 14 14 14 13 13 13
16 15 15 14 14 14 14 14 14 15 15 15 15 15 15 15 16 16 16 16 16 16 16 16 16 16 16 16 16 15 15 15 15 15 15 15 14 14 14 14 14 14 14 14 13 13 13 13 13
16 14 13 14 14 14 14 14 14 14 14 14 14 14 15 15 15 15 16 16 16 16 16 16 16 16 16 15 15 15 15 15 14 14 14 14 14 14 14 14 14 14 13 13 13 13 13 13 13
15 14 13 12 13 13 13 14 14 14 14 13 13 14 14 15 15 15 15 15 15 15 15 15 15 15 15 15 15 15 15 14 14 14 14 14 14 14 14 14 14 13 13 13 13 13 13 13 13
15 14 13 13 13 12 12 13 14 13 13 13 14 14 14 15 15 15 15 15 15 15 15 15 15 15 15 15 14 14 14 14 14 14 14 14 14 14 13 13 13 13 13 13 13 13 13 13 13
Wind_Speed
2 3 3 4 6 6 3 2 0 2 3 2 3 6 6 4 2 3 1 2 2 2 2 4 5 6 7 7 8 8 9 9 10 10 10 11 11 11 11 11 11 12 12 12 11 11 11 11 10
1 2 5 5 5 4 2 2 1 1 3 4 4 5 5 4 2 3 1 2 3 3 3 4 6 7 7 8 8 8 8 9 10 10 10 10 11 11 11 11 11 11 12 12 11 11 11 12 11
2 4 5 5 4 4 2 1 2 2 3 2 4 4 3 3 2 3 2 4 4 3 4 4 6 8 8 8 8 8 8 9 9 9 10 10 10 10 11 11 11 11 12 12 12 12 12 12 11
3 5 5 6 4 1 2 1 3 4 3 4 4 4 3 2 3 3 5 5 5 3 4 4 6 8 8 8 8 8 8 9 9 9 9 10 10 11 10 11 11 11 11 12 12 12 12 11 11
4 5 6 5 3 2 1 1 2 3 2 3 4 4 3 4 4 6 6 5 5 3 3 4 6 7 7 8 8 9 9 9 9 9 9 9 10 10 10 10 11 11 11 12 12 12 12 12 12
5 5 5 2 2 3 2 1 3 4 4 3 4 4 2 1 5 5 5 5 4 3 3 4 5 7 7 8 8 9 9 9 9 9 9 10 10 10 10 10 11 11 11 11 12 12 12 13 13
5 5 4 3 1 2 1 1 3 4 4 3 5 5 1 1 3 5 5 5 4 4 4 4 5 6 7 7 8 8 8 9 9 9 9 9 9 9 10 10 11 11 12 12 13 13 13 13 13
5 5 4 2 2 1 0 2 2 4 3 3 4 6 4 4 5 6 6 5 4 3 3 3 4 5 6 6 7 8 8 8 9 9 9 10 10 10 10 10 11 12 12 13 13 13 13 14 14
4 5 2 3 4 2 1 2 2 2 5 2 1 3 4 8 9 7 5 3 2 2 2 2 3 4 5 5 6 7 7 8 9 8 9 9 9 9 9 10 11 11 12 12 13 13 14 13 13
5 4 3 3 4 3 2 3 3 4 3 2 2 3 7 9 9 8 6 5 3 2 1 1 2 2 3 4 5 6 6 7 7 7 7 7 8 8 8 10 11 11 11 11 12 13 12 11 10
3 4 2 1 2 3 3 2 2 6 2 5 6 7 9 9 8 7 6 5 4 3 2 2 2 2 3 3 4 4 5 5 6 6 7 7 7 7 8 8 8 9 10 9 10 10 9 9 9
3 0 2 1 2 3 3 3 2 3 4 4 6 10 11 10 9 9 8 6 4 3 3 2 3 3 3 3 3 3 3 3 3 4 5 6 4 5 5 5 6 6 7 7 7 7 8 9 9
2 0 1 1 2 2 4 3 2 2 1 3 7 8 9 10 8 6 6 5 5 4 4 3 3 4 3 3 2 2 2 2 3 3 4 5 4 3 3 4 5 5 6 6 5 5 6 6 7
1 1 2 2 2 2 4 1 2 2 2 5 7 7 7 8 7 5 5 5 5 5 5 4 4 5 5 3 2 2 2 2 2 2 2 4 4 3 3 3 3 4 5 5 5 5 4 4 5
2 3 4 3 2 0 4 3 2 2 4 5 5 5 5 4 5 6 6 6 6 5 5 5 5 5 5 4 3 3 3 3 2 2 2 3 4 3 3 3 2 3 4 5 5 5 5 5 5
4 4 2 3 1 1 4 3 5 1 5 4 4 4 4 3 4 5 5 4 5 5 5 5 5 5 5 4 3 2 3 3 2 2 3 3 4 4 4 3 2 3 5 4 3 3 4 4 4
4 1 1 3 1 2 3 4 5 1 5 4 4 4 4 3 2 3 4 5 5 6 6 6 5 6 5 4 3 3 3 3 2 2 2 2 3 4 4 3 2 4 4 3 3 3 3 3 3
3 2 2 3 1 3 2 4 5 1 4 4 4 3 3 4 5 3 3 3 3 4 5 6 5 5 5 4 3 2 2 1 2 2 2 3 3 4 4 3 3 4 3 3 3 4 3 3 3
4 3 3 4 2 2 3 4 6 1 2 3 3 4 4 6 4 1 2 2 3 3 4 5 5 5 5 3 3 3 2 1 1 1 1 3 3 4 4 3 3 3 3 3 3 4 4 3 2
3 3 3 3 0 2 2 4 5 1 3 4 5 5 5 4 2 1 2 2 3 4 4 4 5 5 5 4 3 2 2 1 1 0 1 2 3 4 4 3 3 3 3 3 3 3 2 2 2
2 4 4 3 2 2 1 4 4 3 1 1 1 2 3 4 5 4 4 4 4 4 4 5 5 4 4 4 3 4 3 2 2 1 0 1 2 3 3 4 3 3 3 3 3 3 3 2 1
3 4 4 3 1 2 1 3 6 3 3 2 2 2 2 3 3 3 3 4 5 5 4 4 4 4 4 5 5 5 4 3 2 1 0 0 2 2 3 3 3 3 3 3 3 3 2 3 2
4 1 2 2 3 0 1 1 6 3 3 4 4 3 3 2 3 3 3 4 4 3 4 4 4 4 4 5 6 6 4 2 1 1 1 0 1 1 1 2 3 2 2 3 3 2 3 3 3
2 4 4 4 3 1 3 3 5 3 4 5 3 3 3 2 2 2 1 1 2 2 3 3 5 4 4 4 5 6 6 4 3 2 2 1 0 0 0 1 2 2 2 2 3 3 3 3 3
4 4 3 3 3 4 2 2 5 5 4 4 3 2 2 1 1 1 1 2 2 3 3 4 5 4 4 5 5 5 5 5 5 4 3 2 1 1 2 1 2 1 2 2 2 3 3 3 3
2 6 5 4 4 4 2 4 5 4 4 2 1 0 1 0 1 1 2 3 3 2 2 3 4 4 4 4 4 3 4 4 3 4 3 3 3 3 3 2 2 2 2 2 2 2 3 3 3
4 3 5 5 2 1 4 5 6 2 4 4 3 3 1 0 0 0 1 2 2 2 2 3 4 3 3 3 4 3 4 4 4 3 3 3 2 2 2 2 2 2 1 2 2 2 2 3 3
4 6 4 4 3 3 4 4 4 4 4 4 3 2 2 1 1 1 0 1 1 1 1 1 2 3 3 3 3 3 3 3 3 3 3 3 2 2 1 1 2 2 1 1 2 2 2 3 2
3 4 4 3 4 4 3 5 3 4 3 3 3 2 2 1 1 0 0 1 1 1 2 2 2 2 2 2 2 2 2 2 2 2 3 3 2 2 2 2 2 2 2 2 2 2 2 3 3
4 5 5 4 3 3 3 5 3 1 2 1 2 3 2 1 1 0 0 1 2 1 1 1 1 1 2 2 3 2 2 2 2 1 2 2 2 2 2 2 2 1 2 2 3 3 2 3 3
Wind_Direction
10 60 71 56 54 53 46 343 358 40 51 38 65 82 94 84 95 129 261 145 135 109 79 85 85 85 85 86 87 86 82 81 82 81 81 81 80 80 79 79 77 77 78 81 80 80 82 81 83
45 67 54 59 79 71 352 324 69 89 143 136 74 73 74 65 72 112 124 151 123 110 90 92 90 86 84 86 86 84 84 82 81 80 80 81 82 82 81 79 77 77 77 79 78 77 79 79 81
65 55 73 68 88 134 156 255 132 85 106 106 75 58 81 99 124 154 178 140 106 91 87 92 94 89 86 86 86 85 83 83 83 83 81 81 81 81 81 80 78 78 77 76 75 77 78 77 78
72 45 55 69 74 191 193 194 145 119 79 58 93 68 54 47 157 160 135 122 109 90 85 90 95 90 86 85 84 87 84 82 83 82 82 81 81 80 78 77 79 79 78 77 74 73 74 74 76
59 71 60 52 23 340 291 212 141 116 91 67 92 90 39 6 97 122 124 119 116 100 81 85 92 89 86 85 87 87 86 85 83 82 81 81 81 81 81 77 76 77 77 75 73 73 74 74 75
53 64 79 73 359 349 358 85 115 96 96 94 100 101 57 62 116 132 121 110 108 106 85 78 86 82 84 86 87 86 85 85 85 82 78 77 78 78 77 76 75 77 76 73 73 74 73 74 74
94 86 106 118 52 5 37 81 113 114 110 134 131 109 107 153 158 127 109 101 95 88 80 67 71 75 78 81 82 82 82 81 81 81 78 75 74 74 72 71 74 78 77 74 74 75 74 75 73
112 96 86 103 128 265 245 96 106 115 120 124 123 137 178 192 135 110 95 87 84 75 71 66 68 70 69 73 80 82 81 80 78 78 77 75 71 69 68 68 74 78 78 75 74 73 72 72 69
86 78 120 181 171 207 168 103 70 89 102 89 114 163 176 136 123 114 99 82 94 104 62 67 68 70 74 77 83 81 79 74 71 69 69 67 63 60 61 63 70 75 77 76 74 74 73 71 66
81 113 197 200 180 173 154 137 137 96 93 89 70 79 115 127 135 139 146 155 166 172 163 118 98 87 84 83 76 71 68 65 63 62 62 66 65 61 62 60 64 68 71 73 72 73 69 65 59
108 155 198 189 172 147 139 129 116 125 171 199 177 156 141 142 149 158 167 173 186 185 176 168 152 118 105 85 83 72 72 71 63 61 68 72 66 59 56 54 53 58 62 63 65 64 59 60 59
106 193 170 171 136 135 144 139 120 165 220 211 175 156 154 160 169 174 178 185 177 170 186 178 159 137 128 110 99 95 83 78 71 68 77 79 68 59 57 56 54 58 63 64 63 67 63 64 62
85 335 11 123 100 122 114 124 151 244 283 120 133 143 161 169 176 182 181 177 174 183 190 185 163 153 147 131 128 112 103 93 92 84 84 91 87 73 65 60 62 62 68 71 68 69 67 65 61
162 57 28 32 69 91 113 90 98 269 123 124 137 155 171 178 177 169 172 179 184 189 191 178 166 161 152 153 149 140 133 120 110 106 109 111 107 95 82 70 66 69 77 80 81 77 72 65 65
87 65 27 19 57 88 100 17 270 248 131 142 158 168 173 185 177 183 189 188 190 192 187 173 173 162 158 161 164 150 144 138 133 139 138 130 122 114 103 89 77 81 90 88 80 71 72 70 65
58 60 21 314 36 81 114 258 276 162 146 171 181 179 180 198 196 196 191 193 192 185 181 177 172 159 159 161 157 144 142 140 146 151 148 144 138 131 114 99 88 95 96 92 86 75 74 66 66
40 79 259 302 337 111 135 244 289 128 154 179 190 191 186 200 224 219 201 196 189 183 178 174 167 156 160 154 142 138 132 133 140 142 138 147 149 142 125 113 102 104 94 84 91 78 89 86 71
208 198 236 251 267 125 179 256 287 220 169 185 191 191 186 201 228 221 198 187 174 166 169 171 167 160 149 133 122 114 102 112 114 122 146 150 147 143 127 113 109 112 105 86 88 90 73 88 84
173 179 234 254 229 153 209 268 286 276 174 195 204 207 209 224 237 197 173 155 138 142 154 164 165 163 144 138 146 148 169 181 137 130 161 153 140 138 130 118 111 114 122 123 112 100 86 65 70
166 185 241 293 338 161 221 278 283 257 206 207 205 210 216 223 214 188 174 157 163 163 168 169 173 165 163 163 158 148 142 147 160 122 106 140 132 134 133 129 132 126 122 115 112 109 98 70 67
190 191 216 236 347 34 45 321 313 313 341 7 220 216 214 215 218 205 186 181 170 177 186 182 178 171 169 152 128 108 87 63 44 38 75 78 137 143 140 141 138 138 142 147 147 138 125 126 55
242 234 209 197 118 301 58 287 297 295 336 324 275 233 228 227 210 197 195 190 190 196 183 167 162 161 164 151 148 148 154 169 198 188 185 60 99 121 134 140 141 143 144 156 167 149 140 133 125
217 249 171 178 159 336 2 190 289 325 310 292 274 248 239 225 200 193 200 201 197 189 171 163 151 156 157 160 162 157 157 161 140 121 108 76 34 68 113 135 138 143 153 166 161 139 135 135 142
153 67 58 54 83 277 251 189 281 275 258 281 285 260 235 217 202 199 207 150 151 143 142 148 158 168 162 162 165 165 165 153 140 142 151 139 9 342 71 128 136 155 165 174 168 154 147 143 134
82 88 30 358 6 256 262 195 248 261 262 254 260 264 242 206 172 171 171 152 141 146 153 159 165 176 172 168 167 169 168 163 165 167 172 173 182 228 233 184 176 184 188 171 150 151 158 156 152
162 143 161 204 228 274 314 238 253 275 304 294 259 184 95 120 133 163 185 174 166 151 154 161 165 178 177 175 174 158 156 158 167 170 170 185 199 211 211 203 201 202 186 166 149 157 175 167 169
139 162 164 141 165 257 279 290 304 325 358 14 35 54 71 326 106 132 174 170 165 163 171 177 170 164 169 171 163 150 155 161 170 173 168 181 199 201 196 195 196 195 179 168 158 170 181 169 181
133 143 105 124 169 254 283 276 267 293 313 343 359 356 323 333 355 3 84 161 153 171 166 152 143 155 147 152 162 157 161 166 170 162 175 188 197 189 169 185 199 197 190 179 176 185 191 169 185
94 100 109 121 155 176 245 270 236 237 271 294 296 319 311 291 278 257 273 137 120 110 123 130 135 118 125 145 150 143 155 150 156 175 196 200 196 180 176 189 183 192 202 184 176 195 187 191 198
153 156 144 156 218 185 192 262 285 280 281 301 331 347 339 303 304 281 149 110 101 108 117 142 144 147 168 169 155 150 154 149 153 184 204 194 198 195 184 176 185 205 208 188 181 196 190 197 207
Height
1490 1490 1490 1492 1496 1509 1514 1509 1506 1505 1505 1505 1504 1505 1507 1510 1513 1518 1515 1512 1513 1513 1513 1513 1513 1513 1512 1512 1512 1512 1511 1512 1512 1511 1511 1511 1511 1511 1511 1511 1511 1510 1510 1511 1512 1513 1513 1514 1514
1491 1491 1492 1493 1506 1521 1517 1508 1507 1505 1505 1506 1506 1507 1508 1510 1511 1512 1513 1513 1514 1514 1514 1514 1514 1514 1514 1514 1513 1513 1513 1513 1513 1513 1513 1513 1513 1513 1513 1513 1513 1513 1513 1513 1514 1514 1515 1515 1516
1492 1492 1494 1498 1511 1519 1514 1507 1506 1505 1506 1506 1507 1509 1510 1512 1512 1513 1514 1514 1515 1515 1515 1515 1515 1515 1515 1515 1515 1515 1515 1515 1514 1514 1514 1514 1514 1514 1514 1514 1515 1515 1515 1515 1515 1516 1516 1517 1517
1493 1494 1496 1506 1512 1510 1508 1506 1505 1505 1507 1507 1508 1511 1512 1514 1514 1514 1515 1515 1516 1516 1516 1517 1517 1517 1517 1517 1517 1516 1516 1516 1516 1516 1516 1516 1516 1516 1516 1516 1516 1516 1516 1517 1517 1517 1517 1518 1518
1494 1495 1504 1514 1512 1508 1506 1505 1505 1506 1507 1508 1509 1512 1513 1515 1515 1516 1516 1517 1517 1518 1518 1518 1518 1518 1518 1518 1518 1518 1518 1517 1517 1517 1517 1517 1517 1517 1517 1517 1518 1518 1518 1518 1518 1518 1519 1519 1519
1496 1498 1514 1519 1513 1508 1506 1506 1506 1507 1508 1509 1510 1512 1515 1516 1516 1517 1518 1518 1519 1519 1520 1520 1519 1520 1520 1520 1520 1520 1519 1519 1519 1519 1519 1519 1519 1519 1519 1519 1519 1519 1519 1519 1520 1520 1520 1520 1520
1498 1505 1514 1515 1515 1510 1507 1506 1507 1508 1509 1511 1511 1513 1515 1516 1518 1518 1519 1520 1520 1521 1521 1521 1521 1521 1521 1521 1521 1521 1521 1521 1520 1520 1520 1521 1520 1520 1521 1521 1521 1521 1521 1521 1521 1521 1521 1521 1521
1498 1505 1513 1515 1515 1512 1507 1507 1508 1508 1510 1512 1512 1513 1515 1517 1518 1519 1520 1521 1521 1522 1523 1523 1523 1523 1523 1523 1523 1523 1523 1523 1522 1522 1522 1522 1522 1522 1522 1522 1522 1522 1523 1523 1522 1522 1522 1522 1522
1499 1510 1516 1513 1512 1510 1507 1508 1509 1510 1511 1512 1512 1513 1515 1516 1518 1519 1521 1521 1522 1523 1524 1524 1524 1524 1524 1524 1524 1524 1524 1524 1524 1524 1524 1524 1524 1524 1524 1524 1524 1524 1524 1524 1524 1524 1524 1524 1524
1501 1512 1510 1506 1506 1507 1507 1508 1509 1510 1511 1512 1513 1514 1515 1516 1518 1519 1521 1522 1523 1524 1525 1525 1525 1526 1526 1526 1526 1526 1526 1526 1526 1526 1526 1526 1526 1526 1526 1526 1526 1526 1526 1526 1526 1526 1525 1525 1525
1501 1507 1505 1504 1504 1505 1507 1508 1509 1510 1512 1511 1512 1513 1515 1516 1518 1520 1521 1522 1524 1525 1525 1526 1526 1527 1527 1527 1527 1527 1527 1527 1528 1528 1528 1527 1527 1528 1528 1528 1528 1528 1528 1528 1527 1527 1527 1527 1526
1503 1503 1503 1504 1504 1505 1507 1508 1509 1510 1511 1511 1512 1513 1514 1516 1518 1520 1521 1523 1524 1525 1526 1527 1527 1528 1528 1529 1529 1529 1529 1529 1529 1529 1529 1529 1529 1529 1529 1529 1529 1529 1529 1529 1529 1529 1529 1529 1528
1503 1503 1503 1504 1504 1505 1506 1508 1509 1509 1510 1511 1512 1513 1515 1516 1518 1520 1522 1523 1524 1525 1526 1527 1528 1529 1529 1530 1530 1530 1531 1531 1531 1531 1531 1531 1531 1531 1531 1531 1531 1531 1531 1531 1531 1531 1530 1530 1530
1503 1504 1504 1505 1505 1506 1507 1509 1510 1509 1510 1511 1512 1514 1515 1517 1518 1520 1522 1523 1524 1525 1526 1527 1528 1529 1530 1531 1531 1532 1532 1532 1532 1532 1532 1533 1533 1532 1532 1532 1532 1532 1532 1533 1533 1532 1532 1532 1531
1504 1506 1507 1506 1506 1507 1508 1512 1510 1509 1510 1511 1512 1514 1515 1517 1518 1520 1521 1523 1524 1525 1526 1527 1528 1529 1530 1531 1532 1532 1533 1533 1533 1533 1534 1534 1534 1534 1534 1533 1533 1533 1534 1534 1534 1534 1533 1533 1533
1505 1511 1516 1510 1507 1508 1512 1519 1510 1509 1510 1510 1512 1513 1515 1516 1518 1519 1521 1523 1524 1525 1526 1527 1528 1529 1530 1531 1532 1533 1534 1534 1534 1534 1534 1534 1535 1535 1535 1535 1534 1535 1535 1535 1535 1535 1535 1534 1534
1514 1520 1519 1514 1508 1509 1513 1517 1510 1509 1509 1510 1511 1512 1514 1516 1517 1518 1520 1522 1523 1524 1525 1526 1528 1529 1530 1531 1532 1533 1534 1534 1535 1535 1535 1535 1535 1535 1535 1535 1535 1536 1536 1536 1536 1536 1536 1535 1535
1520 1520 1519 1517 1511 1511 1514 1515 1510 1509 1509 1510 1511 1512 1513 1514 1515 1517 1519 1520 1522 1523 1524 1525 1527 1528 1530 1531 1532 1533 1534 1534 1535 1535 1535 1535 1535 1535 1536 1536 1536 1536 1536 1536 1536 1536 1536 1536 1536
1512 1516 1518 1514 1509 1512 1515 1515 1511 1509 1510 1510 1510 1511 1512 1512 1514 1516 1518 1519 1520 1521 1522 1524 1525 1527 1529 1530 1531 1532 1533 1534 1534 1535 1535 1535 1536 1536 1536 1536 1536 1536 1536 1536 1536 1536 1536 1536 1536
1511 1516 1517 1513 1509 1512 1515 1515 1510 1509 1509 1508 1508 1509 1510 1511 1512 1514 1516 1517 1518 1519 1521 1523 1524 1526 1527 1529 1530 1531 1532 1533 1534 1534 1535 1535 1536 1536 1536 1536 1536 1536 1536 1536 1536 1536 1536 1536 1536
1511 1514 1515 1515 1512 1512 1515 1518 1512 1508 1508 1507 1508 1508 1508 1509 1510 1512 1513 1515 1517 1518 1519 1521 1523 1524 1526 1528 1529 1530 1531 1532 1533 1533 1534 1534 1535 1535 1536 1536 1536 1536 1536 1536 1536 1536 1536 1536 1536
1514 1508 1509 1511 1517 1523 1519 1530 1517 1511 1509 1507 1506 1506 1506 1507 1508 1510 1512 1513 1514 1516 1518 1520 1521 1523 1525 1526 1528 1529 1529 1530 1531 1532 1533 1534 1534 1535 1535 1535 1535 1535 1535 1536 1536 1536 1536 1536 1536
1508 1505 1508 1511 1516 1524 1523 1529 1522 1512 1511 1507 1505 1505 1505 1506 1507 1508 1509 1511 1512 1514 1516 1518 1519 1521 1523 1524 1526 1527 1528 1529 1529 1531 1532 1533 1533 1534 1534 1534 1534 1534 1535 1535 1535 1535 1536 1536 1536
1504 1508 1512 1517 1522 1532 1526 1530 1527 1517 1511 1506 1504 1503 1503 1504 1505 1506 1508 1509 1511 1512 1514 1516 1518 1519 1521 1523 1524 1525 1526 1527 1528 1529 1530 1531 1532 1532 1532 1533 1533 1533 1533 1534 1534 1534 1535 1535 1536
1507 1518 1531 1532 1538 1536 1525 1527 1524 1510 1506 1504 1503 1502 1502 1503 1504 1505 1506 1507 1508 1510 1512 1514 1516 1517 1519 1521 1522 1523 1524 1525 1526 1527 1528 1529 1529 1530 1530 1531 1531 1531 1532 1533 1533 1533 1534 1534 1535
1510 1516 1532 1539 1541 1537 1527 1528 1517 1506 1504 1503 1502 1501 1502 1502 1503 1504 1505 1506 1507 1508 1510 1512 1513 1515 1517 1518 1519 1521 1522 1523 1524 1525 1526 1527 1527 1528 1529 1529 1529 1530 1530 1531 1531 1532 1532 1533 1533
1511 1517 1517 1530 1533 1538 1532 1524 1513 1504 1503 1502 1502 1501 1501 1502 1503 1503 1504 1505 1506 1507 1508 1510 1511 1513 1515 1516 1517 1519 1520 1521 1522 1523 1524 1525 1525 1526 1527 1527 1527 1528 1528 1528 1529 1530 1530 1531 1531
1506 1512 1523 1528 1537 1540 1532 1527 1522 1510 1507 1504 1503 1502 1502 1502 1502 1503 1504 1505 1505 1506 1508 1509 1510 1511 1513 1514 1516 1517 1518 1519 1520 1521 1522 1523 1523 1524 1524 1524 1525 1525 1526 1526 1526 1527 1528 1528 1529
1511 1515 1520 1527 1530 1537 1538 1530 1510 1508 1506 1505 1503 1502 1502 1502 1502 1503 1503 1504 1504 1505 1507 1508 1509 1510 1511 1512 1514 1515 1516 1517 1518 1519 1520 1520 1521 1521 1521 1521 1522 1523 1523 1523 1524 1524 1525 1526 1526
1506 1511 1517 1526 1530 1533 1535 1529 1506 1505 1504 1503 1503 1502 1502 1502 1503 1503 1503 1503 1503 1504 1505 1506 1507 1508 1509 1511 1512 1513 1514 1515 1516 1516 1517 1518 1518 1519 1519 1519 1519 1520 1520 1520 1521 1521 1522 1523 1523